Location: Moscow
(55.7500°N, 37.5830°E)
Time: 17:24:16
(UTC+03:00)

A-11 Canister half - Pass Details

Date: 05 December 2021
Orbit: 1516 x 1684 km, 47.2° (Epoch: 19 January)

Event Time Altitude Azimuth Distance (km) Brightness Sun altitude
Rises 12:01:27 0° 275° (W) 4,859 11.5 11.7°
Reaches altitude 10° 12:04:45 10° 269° (W) 3,892 11.1 11.8°
Maximum altitude 12:13:52 42° 204° (SSW) 2,237 10.9 11.8°
Drops below altitude 10° 12:23:07 10° 138° (SE) 3,944 12.0 11.8°
Sets 12:26:30 0° 132° (SE) 4,929 12.3 11.8°
